Flag for Germany Weather past 2 weeks in Westerstede, Lower Saxony, Germany

Now
59 °F

Fog.


Feels Like: 59 °F
Forecast: 55 / 69 °F
Wind: No wind

Location: Wittmundhaven

Current Time: Oct 2, 2014 at 9:38:24 AM

Latest Report: Oct 2, 2014 at 8:20 AM


Visibility: 1 mi

Pressure: 30.36 "Hg

Humidity: 94%

Dew point: 57 °F

Location of WesterstedeLocation

Historic Weather in Westerstede — Graph

°F

Westerstede temperature yesterday

Maximum temperature yesterday: 68 °F (at 2:20 PM)
Minimum temperature yesterday: 52 °F (at 3:20 AM)
Average temperature yesterday: 59 °F

Past Weeks' High & Low Weather Summary

 TemperatureHumidityPressure
High75 °F (Sep 17, 3:20 PM)100% (Sep 19, 6:20 AM)30.36 "Hg (Sep 19, 6:20 AM)
Low45 °F (Sep 23, 6:20 AM)49% (Sep 27, 1:20 PM)29.74 "Hg (Sep 24, 5:20 PM)
Average59 °F83%30.07 "Hg
* Reported Sep 17 7:20 AM — Oct 2 7:20 AM, Westerstede, Weather by CustomWeather, © 2014

Note: Actual official high and low records may vary slightly from our data, if they occured in-between our weather recording intervals... More about our weather records

Advertising

Westerstede weather history for previous 24 hours

 ConditionsComfort  
Time TempWeatherWind HumidityBarometerVisibility
7:20 AM
Oct 2
59 °FDrizzle. Fog.1 mph94%30.36 "Hg1 mi
6:20 AM57 °FCool.2 mph100%30.33 "Hg1 mi
5:20 AM57 °FCool.3 mph100%30.33 "Hg1 mi
4:20 AM59 °FCool.3 mph94%30.33 "Hg1 mi
3:20 AM57 °FCool.3 mph94%30.33 "Hg0 mi
2:20 AM57 °FCool.3 mph100%30.33 "Hg1 mi
1:20 AM59 °FCool.3 mph100%30.33 "Hg1 mi
12:20 AM59 °FCool.5 mph94%30.33 "Hg1 mi
11:20 PM
Oct 1
59 °FCool.3 mph100%30.33 "Hg1 mi
10:20 PM61 °FCool.5 mph94%30.30 "Hg1 mi
10:01 PM61 °FDrizzle. Fog.5 mph94%30.30 "Hg2 mi
9:20 PM61 °FDrizzle. Fog.6 mph94%30.30 "Hg2 mi
8:46 PM61 °FDrizzle. Fog.7 mph94%30.30 "Hg2 mi
8:20 PM63 °FDrizzle. Fog.8 mph88%30.30 "Hg3 mi
7:20 PM63 °FPartly sunny.6 mph83%30.27 "HgN/A
6:20 PM64 °FBroken clouds.5 mph78%30.27 "HgN/A
5:20 PM68 °FScattered clouds.8 mph69%30.27 "HgN/A
4:20 PM68 °FPassing clouds.9 mph69%30.27 "HgN/A
3:20 PM68 °FPassing clouds.10 mph69%30.27 "HgN/A
2:20 PM68 °FScattered clouds.9 mph69%30.27 "HgN/A
1:20 PM64 °FScattered clouds.9 mph83%30.27 "Hg4 mi
12:20 PM61 °FFog.8 mph88%30.27 "Hg3 mi
11:20 AM59 °FFog.6 mph94%30.27 "Hg1 mi
10:20 AM57 °FFog.7 mph100%30.27 "Hg1 mi
9:20 AM55 °FFog.5 mph94%30.27 "Hg0 mi
Weather by CustomWeather, © 2014

See weather overviewHow to use our weather pages